Location: Chrome
(40.5765°N, 74.2163°W)
Time: 14:43:03
(UTC+00:00)

Cosmos 1340 - Pass Details

Date: 06 December 2019
Orbit: 502 x 506 km, 81.2° (Epoch: 22 January)

Event Time Altitude Azimuth Distance (km) Brightness Sun altitude
Rises 22:08:09 0° 348° (NNW) 2,616 6.2 -7.4°
Reaches altitude 10° 22:10:17 10° 347° (NNW) 1,726 5.3 -7.7°
Maximum altitude 22:14:04 75° 263° (W) 529 2.9 -8.4°
Drops below altitude 10° 22:17:49 10° 177° (S) 1,713 5.6 -9.1°
Sets 22:19:56 0° 176° (S) 2,593 6.5 -9.4°
